Alexandria, LA

4:25 PM CST on January 19, 2017 (GMT -0600)
J N Gray | | Change Station

Elev 70 ft 31.27 °N, 92.47 °W | Updated 9 seconds ago

Partly Cloudy
Partly Cloudy
64.6 °F
Feels Like 64.6 °F
N
4.7
Wind Variable Wind from South

Today
High -- | Low -- °F
--% Chance of Precip.
Yesterday
High -- | Low -- °F
Precip. -- in
Pressure 29.75 in
Visibility 10.0 miles
Clouds Few 1100 ft
Dew Point 62 °F
Humidity 92%
Rainfall 0.66 in
Snow Depth Not available.
7:08 AM 5:33 PM
Waning Gibbous, 50% visible
METAR KAEX 192153Z 17008KT 10SM FEW011 18/16 A2973 RMK AO2 RAE06 SLP072 P0001 T01780161
Pressure 29.75 in
Visibility 10.0 miles
Clouds Few 1100 ft
Dew Point 62 °F
Humidity 92%
Rainfall 0.66 in
Snow Depth Not available.
7:08 AM 5:33 PM
Waning Gibbous, 50% visible
METAR KAEX 192153Z 17008KT 10SM FEW011 18/16 A2973 RMK AO2 RAE06 SLP072 P0001 T01780161

Get Your Daily Forecast Email!

Thanks for signing up!

Be on the lookout for a verification email in your inbox.

You'll start receiving the daily forecast at 8 AM.

×

10-Day Weather Forecast

Almanac

Astronomy

Jan. 19, 2017 Rise Set
Actual Time
Civil Twilight
Nautical Twilight
Astronomical Twilight
Moon
Length of Visible Light
Length of Day
Tomorrow will be .
, % of the Moon is Illuminated

Today's Extremes

State Highs State Lows

Community

WunderPhotos

Upload Photos

1,962,540 photos uploaded!

WunderBlog® & News

Nearby

Air Quality

  Air Quality AQ Index Pollutant
Not available.

Snow Depth

Station Depth Elevation

Earthquake Activity

City Distance Mag. Time & Date
Minimum magnitude displayed is 2.5.

Coastal Water Temperatures

Place Temperature

Stations

Nearby Weather Stations

Station Location Temp. Windchill Dew Point Humidity Wind Precip. Elev Updated Type
                   

Watches & Warnings

There are currently no watches in effect.